TimeEST,TemperatureF,Dew PointF,Humidity,Sea Level PressureIn,VisibilityMPH,Wind Direction,Wind SpeedMPH,Gust SpeedMPH,PrecipitationIn,Events,Conditions,WindDirDegrees,DateUTC
12:15 AM,41.0,40.1,97,30.16,7.0,East,8.1,-,N/A,,Drizzle,80,2012-12-07 05:15:00
12:35 AM,41.0,40.1,97,30.16,7.0,East,6.9,-,N/A,,Overcast,100,2012-12-07 05:35:00
12:55 AM,40.3,39.6,97,30.16,5.0,East,5.8,-,N/A,,Overcast,90,2012-12-07 05:55:00
1:15 AM,39.9,39.2,97,30.16,5.0,East,5.8,-,N/A,,Overcast,80,2012-12-07 06:15:00
1:35 AM,39.2,38.7,98,30.16,5.0,East,5.8,-,N/A,,Overcast,90,2012-12-07 06:35:00
1:55 AM,38.8,38.3,98,30.16,5.0,East,3.5,-,N/A,,Mostly Cloudy,90,2012-12-07 06:55:00
2:15 AM,38.5,38.1,99,30.15,5.0,East,4.6,-,N/A,,Scattered Clouds,80,2012-12-07 07:15:00
2:35 AM,38.3,38.1,99,30.15,5.0,East,4.6,-,N/A,,Clear,100,2012-12-07 07:35:00
2:55 AM,37.9,37.6,99,30.15,5.0,East,4.6,-,N/A,,Clear,90,2012-12-07 07:55:00
3:15 AM,38.3,37.8,98,30.14,5.0,ESE,4.6,-,N/A,,Clear,110,2012-12-07 08:15:00
3:35 AM,38.3,37.8,98,30.14,5.0,SE,3.5,-,N/A,,Clear,130,2012-12-07 08:35:00
3:55 AM,37.8,37.4,99,30.14,4.0,ESE,3.5,-,N/A,,Scattered Clouds,110,2012-12-07 08:55:00
4:15 AM,37.4,36.9,98,30.13,4.0,ENE,3.5,-,N/A,,Scattered Clouds,70,2012-12-07 09:15:00
4:35 AM,37.8,37.6,99,30.13,4.0,Calm,Calm,-,N/A,,Clear,0,2012-12-07 09:35:00
4:55 AM,37.6,37.4,99,30.13,3.0,Calm,Calm,-,N/A,,Scattered Clouds,0,2012-12-07 09:55:00
5:15 AM,36.9,36.7,99,30.13,3.0,Calm,Calm,-,N/A,,Scattered Clouds,0,2012-12-07 10:15:00
5:35 AM,36.7,36.5,99,30.13,2.5,Calm,Calm,-,N/A,,Scattered Clouds,0,2012-12-07 10:35:00
5:55 AM,36.3,36.1,99,30.13,2.0,Calm,Calm,-,N/A,,Clear,0,2012-12-07 10:55:00
6:15 AM,35.8,35.6,99,30.13,1.5,Calm,Calm,-,N/A,,Mist,0,2012-12-07 11:15:00
6:35 AM,35.2,35.1,99,30.14,1.5,Calm,Calm,-,N/A,,Mist,0,2012-12-07 11:35:00
6:55 AM,35.8,35.6,99,30.14,2.5,Calm,Calm,-,N/A,,Scattered Clouds,0,2012-12-07 11:55:00
7:15 AM,36.0,36.0,100,30.14,2.5,ENE,5.8,-,N/A,,Clear,60,2012-12-07 12:15:00
7:35 AM,36.7,36.5,99,30.15,3.0,Calm,Calm,-,N/A,,Clear,0,2012-12-07 12:35:00
7:55 AM,36.9,36.7,99,30.14,3.0,Calm,Calm,-,N/A,,Scattered Clouds,0,2012-12-07 12:55:00
8:15 AM,37.2,37.0,99,30.14,3.0,ESE,3.5,-,N/A,,Mostly Cloudy,120,2012-12-07 13:15:00
8:35 AM,37.8,37.4,99,30.14,3.0,Calm,Calm,-,N/A,,Scattered Clouds,0,2012-12-07 13:35:00
8:55 AM,38.7,38.3,99,30.14,3.0,Calm,Calm,-,N/A,,Scattered Clouds,0,2012-12-07 13:55:00
9:15 AM,41.2,40.1,96,30.14,5.0,SE,4.6,-,N/A,,Mostly Cloudy,130,2012-12-07 14:15:00
9:35 AM,42.3,39.7,91,30.14,7.0,Calm,Calm,-,N/A,,Overcast,0,2012-12-07 14:35:00
9:55 AM,44.1,41.5,91,30.14,10.0,ENE,3.5,-,N/A,,Overcast,70,2012-12-07 14:55:00
10:15 AM,45.7,41.5,85,30.14,10.0,ENE,3.5,-,N/A,,Mostly Cloudy,70,2012-12-07 15:15:00
10:35 AM,47.5,43.0,84,30.13,10.0,ENE,4.6,-,N/A,,Overcast,70,2012-12-07 15:35:00
10:55 AM,49.8,44.1,81,30.11,10.0,East,5.8,-,N/A,,Scattered Clouds,80,2012-12-07 15:55:00
11:15 AM,52.9,46.6,79,30.11,10.0,East,5.8,-,N/A,,Scattered Clouds,80,2012-12-07 16:15:00
11:35 AM,53.4,46.6,78,30.10,10.0,East,4.6,-,N/A,,Scattered Clouds,90,2012-12-07 16:35:00
11:55 AM,54.1,46.8,76,30.09,10.0,East,5.8,-,N/A,,Scattered Clouds,90,2012-12-07 16:55:00
12:15 PM,55.2,47.7,76,30.08,10.0,East,5.8,-,N/A,,Mostly Cloudy,90,2012-12-07 17:15:00
12:35 PM,55.8,48.2,76,30.08,10.0,ENE,3.5,-,N/A,,Overcast,70,2012-12-07 17:35:00
12:55 PM,58.5,49.3,72,30.06,10.0,NE,4.6,-,N/A,,Scattered Clouds,40,2012-12-07 17:55:00
1:15 PM,59.5,49.8,70,30.05,10.0,Calm,Calm,-,N/A,,Scattered Clouds,0,2012-12-07 18:15:00
1:35 PM,60.3,50.2,69,30.04,10.0,North,3.5,-,N/A,,Scattered Clouds,10,2012-12-07 18:35:00
1:55 PM,60.8,49.8,67,30.03,10.0,Calm,Calm,-,N/A,,Clear,0,2012-12-07 18:55:00
2:15 PM,61.5,50.7,68,30.02,10.0,Calm,Calm,-,N/A,,Clear,0,2012-12-07 19:15:00
2:35 PM,62.1,50.4,65,30.02,10.0,Calm,Calm,-,N/A,,Clear,0,2012-12-07 19:35:00
2:55 PM,62.4,50.0,64,30.01,10.0,West,4.6,-,N/A,,Clear,260,2012-12-07 19:55:00
3:15 PM,62.1,49.1,62,30.01,10.0,WSW,6.9,-,N/A,,Clear,240,2012-12-07 20:15:00
3:35 PM,61.7,49.6,65,30.01,10.0,West,9.2,-,N/A,,Clear,270,2012-12-07 20:35:00
3:55 PM,62.2,50.2,65,30.01,10.0,WSW,6.9,-,N/A,,Scattered Clouds,250,2012-12-07 20:55:00
4:15 PM,61.0,49.3,65,30.01,10.0,WSW,5.8,-,N/A,,Scattered Clouds,240,2012-12-07 21:15:00
4:35 PM,60.8,49.1,65,30.01,10.0,WSW,6.9,-,N/A,,Clear,240,2012-12-07 21:35:00
4:55 PM,59.5,48.6,67,30.01,10.0,WSW,6.9,-,N/A,,Clear,250,2012-12-07 21:55:00
5:15 PM,58.3,48.2,69,30.01,10.0,WSW,6.9,-,N/A,,Clear,250,2012-12-07 22:15:00
5:35 PM,58.1,48.4,70,30.01,10.0,West,3.5,-,N/A,,Clear,260,2012-12-07 22:35:00
5:55 PM,56.1,48.2,75,30.01,10.0,Calm,Calm,-,N/A,,Clear,0,2012-12-07 22:55:00
6:15 PM,53.4,47.5,80,30.01,10.0,Calm,Calm,-,N/A,,Clear,0,2012-12-07 23:15:00
6:35 PM,52.3,47.3,83,30.01,10.0,Calm,Calm,-,N/A,,Scattered Clouds,0,2012-12-07 23:35:00
6:55 PM,51.4,47.7,87,30.02,10.0,Calm,Calm,-,N/A,,Mostly Cloudy,0,2012-12-07 23:55:00
7:15 PM,50.0,47.3,90,30.02,10.0,Calm,Calm,-,N/A,,Scattered Clouds,0,2012-12-08 00:15:00
7:35 PM,49.8,46.6,89,30.02,10.0,Calm,Calm,-,N/A,,Mostly Cloudy,0,2012-12-08 00:35:00
8:15 PM,48.2,46.9,95,30.02,10.0,Calm,Calm,-,N/A,,Scattered Clouds,0,2012-12-08 01:15:00
8:35 PM,46.9,46.0,97,30.02,10.0,Calm,Calm,-,N/A,,Clear,0,2012-12-08 01:35:00
8:55 PM,45.5,44.8,97,30.02,10.0,Calm,Calm,-,N/A,,Clear,0,2012-12-08 01:55:00
9:35 PM,45.1,44.8,99,30.02,3.0,Calm,Calm,-,N/A,,Clear,0,2012-12-08 02:35:00
9:55 PM,44.6,44.4,99,30.02,7.0,Calm,Calm,-,N/A,,Clear,0,2012-12-08 02:55:00
10:35 PM,44.6,44.4,99,30.02,7.0,Calm,Calm,-,N/A,,Clear,0,2012-12-08 03:35:00
10:55 PM,43.7,43.7,100,30.02,7.0,Calm,Calm,-,N/A,,Clear,0,2012-12-08 03:55:00
11:15 PM,43.7,43.7,100,30.02,7.0,Calm,Calm,-,N/A,,Clear,0,2012-12-08 04:15:00
11:35 PM,43.7,43.3,99,30.02,2.5,Calm,Calm,-,N/A,,Scattered Clouds,0,2012-12-08 04:35:00
11:55 PM,42.1,41.9,99,30.02,1.2,Calm,Calm,-,N/A,,Mostly Cloudy,0,2012-12-08 04:55:00